Starlink 11679

operational
NORAD ID: 64129 Int'l Des: 2025-111 Owner: SPXS Country: US Constellation: starlink
LEOCIRCULAR

Über Starlink 11679

Beschreibung wird geladen...

Live-Position

3D-Globus wird geladen...

Nächste Überflüge

Höhenverlauf

Altitude vs Time

uPlot chart will show altitude changes over time

Zweizeiliger Elementsatz

1 64129U 25111G 25354.34707752 .00184655 00000-0 14042-2 0 9998
2 64129 42.9999 91.8255 0001542 255.3157 104.7539 15.70951935 34164
Epoch: 20. Dez. 2025 • Age: 27 hours

Aktueller Status

Höhe 358.9 km
Geschwindigkeit 7.69 km/s
Subsatellitenpunkt -19.57°S, 157.36°E
Startdatum 24. Mai 2025
Alter 0.5 years
Typ internet

Technische Details

Klassifizierung Payload
Masse 960.00 kg
Trockenmasse 910.00 kg
Gesamtmasse 960.00 kg
Länge 0.30 m
Durchmesser 4.10 m
Spannweite 29.00 m
Form Box + pan
Hersteller SPXS
Bus-Typ Starlink V2MD
Phasenstatus In Orbit
Besitzer/Staat SPXS/US

Große Konstellationen

Loading constellations...